"Pseudo-MPEC" for A10arpT

Created 2018 Dec 8 16:18:03 UT using Find_Orb

Click here for an explanation of pseudo-MPECs

 
 Astrometry: 
     A10arpT  C2018 12 06`yyA:Astrometry\W*6yB-uIcji?je$TTXj],Pno6nn2bPiFAii(T05
     A10arpT  C2018 12 06RbP1=*i-AO76DM^l9Fw)lL5j(ERd0^L;oiy^PA4g12oI%.ok;t=QT05
     A10arpT  C2018 12 06*xIyGmx,Cste*,4Sevgh;_I5G\/:Ym8\l`OjFMd@lHVl23D*O*S+T05
     A10arpT  C2018 12 069@RheRo)La+RA;xxNfBX;f31/o12C#KdUm)-c2Y$qe3dxaPtsE!_T05
     A10arpT  C2018 12 06KT`icSrJp^]O/IOBg']q!1pVp(C?0NT5):$FHPqhTGwWvtD#1oYBT05
     A10arpT  C2018 12 062aAGj5%j]/aVQ#(MTr14Aj0-#U8jAy1hCFG4^VO:aEqisKFk]42'T08
     A10arpT  C2018 12 068IS#kQ#8?aHnU/:My3REXiYDqWX%2qJ@NoqR.6mV*#@x*s1\iLQhT08
     A10arpT  C2018 12 06B_db4Z3@h#gx-jr,tkq1/;]:)ZIii7OeP:'tn8qn%JgeyX\0BQG\T08
     A10arpT  C2018 12 06yD'mKEg@^]kQpB5AwL+?#RU^g;alk`6rS;rt50W'(/QJ'Al$mQwJT08
     A10arpT  C2018 12 06q90af#8llHJMP3%:FsmxJq\WZa%*Ysn@_fwwYDy]q)pP)dP*7w\bT08
     A10arpT  C2018 12 06Ylr'gWnd.Mba0ZjZdsx;W689Ra1K6EJI7BQ$SyC;L+6?lJ*@yw87T05
     A10arpT  C2018 12 06!@mm=xqpw:fIh9?[cIU?RXnwVGTLj/G]d[N4XB[BCtbX7e3Wh?i\T05
     A10arpT  C2018 12 06ZM177Fe%%-Z:*#il5Z1HkSg4i*4L/`Tj3e[$eF]D-=_7tN]/bI1TT05
     A10arpT  C2018 12 06Lm7OEr-1rkUredacted;Ybnq7v._W294e[ZH^`og,*fX7Q*(-dEUT05
     A10arpT KC2018 12 06!n*5YeI\#/Q$P8b=JyHU\Us'e.==+y.,Hlu[WDq5.#m^;UUeT$tj474
     A10arpT KC2018 12 06oaB#GjoC%'AQpOTchoC4L!c=i0hg@W7[Sn(w%EGSov-XdVvbEc.?474
     A10arpT KC2018 12 061sLYIw[%v(3k%@ICQy+vI*uU]);0nh\Nj_KeH.x9gr=1#pyrs]nO474
     A10arpT  C2018 12 06CR!hlLnWN/hD[+U_!%^NyBBN\'`7w34*hvop-CM1qwp\L+A^=vfyT05
     A10arpT KC2018 12 06_][5RQBuX^a)51cL]IG]-dYt=7!-F;e_xFt*RdTAnCRWo6MhZ-bw474
     A10arpT KC2018 12 06)1p#;sug'[$Ilt_Mj2;KsWHqta;R1x=[U38N.%/%:4N,b33,yNWM474
     A10arpT KC2018 12 06f,l)AHYv%^`*RN29jyLvxUTK:hJtc`o0CjX`J/?bI#;w5Tg4Z=f5474
     A10arpT KC2018 12 0640KDSpWmt@f\iiQf$_-8@$%UPq+ig/F!sKy'uVtov;,?*]_cwlU=474
     A10arpT KC2018 12 06DLAj';p'Bk7p;heG-p^m3[9hRd#%ebk0ifTp'$w#p5N1Wm2d=p1P104
     A10arpT KC2018 12 06cU^T?MAsxxuZHdb3AUE`s;q#GvB,frou1$:8yg6U?25APQTLaSf4104
     A10arpT KC2018 12 06T,LO=PCVOdl**XtKc%Z5f3U6l8-Zc425=P?:`n%RS/e'4N,n=M\r104
     A10arpT KC2018 12 06yw322QRkJ.-Ys4H!uHRjO%UI8TH5A4HLPTrRTBaV4P$6%tT'MEW,160
     A10arpT KC2018 12 06)q60Gj(TxJ;nOE*e$%t,,s=lMwji3$L*:\,^d`75!+o**J/YDo?=160
     A10arpT KC2018 12 06BZ9'Nv3g`sXON=EXHy\1XZwwlbuUcbQwXLRE98qhclickF4g%6f;160
     A10arpT KC2018 12 06M]I\14xgl$?8=20hTWA6m-QH+M*G1=Jn=[(o#Nsvfj.QXb.5)x\j160
     A10arpT KC2018 12 06Xr(nj=P_t$3qEWYv6B^%%\aJeEEvZ!T4s6(c.X#(\jy'GYW]U;4Q160
     A10arpT KC2018 12 067_K2lSveS)!C\)jo:(JVD9-Vw$Y5Lpt(A-tN]u9jX:3:wW08_4H^L01
     A10arpT KC2018 12 06::wiBPpFgk_WISj+!(C;kSDGIht=\q`$i6u5#@N4D[XfZDcu`.N*L01
     A10arpT KC2018 12 064telcVAR3bH`aZ(:Fki`qEcFRno1(iQO,ap^t2vrWNbKtS;5-fZJL01
     A10arpT KC2018 12 06OP26!Kd3ia`Irh1w=?8RLY2wlxp(vq.%uo#FZjiu*9Gs$D6C7hppL01
     A10arpT KC2018 12 07OhS.j($G(88q3vd4oiX_2oM\?'][ZTcC3K3oO[wAMH.I3B?VUXBJX31
     A10arpT KC2018 12 07!q_:Lj'usr;iu#m.Ff!D`%PsIr6)MaBlUI6\D/S=$Bl(5(!r)F2bX31
     A10arpT KC2018 12 07P]kv8:2N_u'VT$H6mIN!o`=yl)VhR,KD(=^nlwiM-CQ/3EeQH9,qX31
     A10arpT KC2018 12 07[`2`*n$BJt,w'))7=(VHPp/Gp3q@xwd8d3-Of'5=bsSj(0lX!YPhH21
     A10arpT KC2018 12 07m(TZx;0By5^r68bUQ(0dXy;JbxnQFP+(jFBj6[bLM%jO4u1D`iCUH21
     A10arpT KC2018 12 07Fv)wq)s;?T#k'\60p1A;qd8'Xx[Ni[Ne;Wbfa6'D_rLAb\8sX-EBH21
     A10arpT KC2018 12 07@BW`7hhere$O8+0]D(cfjyX=W?brhTJO7DqH*c6-gfELP\q2E7VEH21
     A10arpT KC2018 12 07:$ed./YJmB`/\V\-h\xD[Gr7C.n]fYt[eT_XvEY`3v\o)%+'#f(uH36
     A10arpT KC2018 12 07_dD@ORYbO$A5^.1uWncO#O1y-6\Yx,c+8l]qT2PO!4]fco4cX=A-H36
     A10arpT KC2018 12 07==mZH+L_W[L-dMun_q(OC6Nq+m(Z0E'jGfp,w+X^p`ZrTsi6OrjMH21
     A10arpT KC2018 12 07(PK/@LOjYMvk1lQE_r-PH%@ug9?5%F=UKOx0@W]pHHTnZmfgC4FcH36
     A10arpT KC2018 12 07tFTUvRepcH@fp\tg+)es))]J:t'Q#x1WNBD[DdG:Fu3cE(k(1(R%H36
     A10arpT KC2018 12 07EG]ci[D3yF'EA:a^2`fXBQ:NW=bhPxwuE4^ho]Un]7mX+.=rH]PDH36
     A10arpT 1C2018 12 07B83?33-L!/1JlHq$S%A%'YUKwV;XxSF=AYJm4VE*G!UZZa[6f7jc658
     A10arpT 1C2018 12 07bZ!fM5F)5P+\Q17egrbl9R/`7+QP'm0(Y7r%t-/YC:k[%2-_5oQN658
     A10arpT 1C2018 12 07C(4S0GE\M?i6y3QDH0VUpk$!t%/q=):E=H/emll25(e3/$D@Y:1]658
     A10arpT 1C2018 12 07OxNNov]ZC)0?cuuv_@%3Z6KPvgbD!7B*elZ$,-4%pcTFHTAMBUm+658
     A10arpT [C2018 12 075@I'T-XfnFEdye2.,:P;2CGZ#:LmSa3VBh\*Hx!mqeG\QUBE_]1(Q62
     A10arpT [C2018 12 07,3@bVby:=G8o/]pEhKAhdYSlqy+Jq80*Ys:urT8sG0B0m806=QX'Q62
     A10arpT [C2018 12 07`'qq2*Dp[C(Of8vXHfvTDWrV+.@IHit4t:ThOr1W!QpR0r,L==yMQ62
     A10arpT  C2018 12 07VP)*forHx^6M0+2SUc'6I.Sg-inN0KC@U'JX%bnRrJ7^$FA(9E6F474
     A10arpT  C2018 12 07epx+%/^^q,kDW(([)_V1R!!RgxYCi4b:gn@FW$_)0PMg2/oHY4'-474
     A10arpT  C2018 12 07-cvU)v3a[q1C_xR;mUtN///ei)0l8q/4'l0nSldJW-cU9%InSwX,474
     A10arpT  C2018 12 07;cP)DB:8u`=ccMVBv%vM]83W@c51**N54rW(0-hf-+)JX:m.?i5V474
     A10arpT  C2018 12 07gJa;_u4qWxXE?e*i=\K5%;E;3*i].PyH%gs\?Q[^pf;_)1v.GU#F474
     A10arpT KC2018 12 07JhS#6Yj/o0`QHVqcoukbv!fBqa8A%c/X@Ek1.aAnli$cSs=(?Y$@E23
     A10arpT KC2018 12 07\'!k:A6+RxFMl8=JUJwr,,06+0\F3@(nuM.=no;:Ba-91b=/5I%uE23
     A10arpT KC2018 12 071c%!7h=T\fpPcW]VCtRiw1d1'jUgKfm5EngfZ#R*TobkL_Ek4wx.E23
     A10arpT KC2018 12 07?])3cpyDN,((!DM')s'ta%w`35)Q`Q4%5qmxhFvR%x.I%5SR=M:vJ69
     A10arpT KC2018 12 074)Y#BMR^YW6A[p14HN;$tpg3S(gBe!Ee'!..TFBe7=F-N4/V*LZ$J69
     A10arpT KC2018 12 07LoZKZ;MB$[iFFZcGgl[PHe)iyQ[O[:U*Ndi-amh*mid16+#K[%7^J69
     A10arpT KC2018 12 07NcuX7!w[/^(QhP@RaV]\rCs0,-GEWgt@,2r)G[g)2/Y-at=x8yK6J69
     A10arpT KC2018 12 07.92486405 43 45.48 -01 17 48.7          17.7 GVNEOCPJ95
     A10arpT KC2018 12 07.92789705 43 51.90 -01 16 39.8          17.5 GVNEOCPJ95
     A10arpT KC2018 12 07.93088805 43 58.26 -01 15 31.4          18.0 GVNEOCPJ95
     A10arpT KC2018 12 087Jo1AC9_Dt'N`6-mR\1*N0Ud]7`qt(bxwM?yK2_o`@CGV+n.gYmoX31
     A10arpT KC2018 12 08R3nfA+SlrlbX2_YCjN+1-x[QGo2:id(lXnFTSSFKFb*2HcUlkaXyX31
     A10arpT KC2018 12 08Uw']C:Qin*wn0CWnU%1eq#LOVexplanationeB`PW[(9rKSIo!-lX31

Station data:
(104) San Marcello Pistoiese  (N44.063037 E10.804200)  Italy. 0.40-m f/5
   reflector.
(160) Castelmartini  (N43.823061 E10.841440)  Italy.
(474) Mount John Observatory, Lake Tekapo  (S43.987388 E170.464960)  New
   Zealand.  Observers A. C. Gilmore, P. M. Kilmartin. Measurer P. M.
   Kilmartin. 1.0-m f/7.7 reflector + CCD.
(658) Dominion Astrophysical Observatory  (N48.519987 W123.417000)
   Canada/BritColumbia. 1.82-m Plaskett reflector.
(E23) Arcadia  (S33.621199 E151.071190)  Australia/NSW.
(H21) Astronomical Research Observatory, Westfield  (N39.483057 W87.968270)
   US/Illinois. 0.76-m f/3.0 astrograph + CCD.
(H36) Sandlot Observatory, Scranton  (N38.797693 W95.706400)  US/Kansas.
   Observer G. Hug. 0.56-m reflector + CCD.
(J69) North Observatory, Clanfield  (N50.939014 W1.019700)  UK.
(J95) Great Shefford  (N51.474969 W1.447003)  UK.  Observer P. Birtwhistle.
   0.40-m f/6.0 Schmidt-Cassegrain + CCD.
(L01) Višnjan Observatory, Tičan  (N45.290900 E13.749300)  Croatia.
   Observers K. Korlević, E. Pettarin. Measurer E. Pettarin. 1.0-m f/2.9
   reflector + CCD.
(Q62) iTelescope Observatory, Siding Spring  (S31.273289 E149.064420)
   Australia/NSW. 0.50-m f/6.8 astrograph + CCD + focal reducer, 0.70-m f/6.6
   astrograph + CCD.
(T05) ATLAS-HKO, Haleakala  (N20.707573 W156.257010)  US/Hawaii.  Observers
   L. Denneau, A. Heinze, H. Weiland, J. Tonry, H. Flewelling, A.
   Fitzsimmons, D. Young. Measurers L. Denneau, A. Heinze, J. Tonry. 0.5-m
   f/2.0 Schmidt + CCD.
(T08) ATLAS-MLO, Mauna Loa  (N19.535772 W155.576400)  US/Hawaii.
(X31) Galileo Galilei Observatory, Oro Verde  (S31.823022 W60.520660)
   Argentina.

Orbital elements:  A10arpT
   Perihelion 2018 Dec 11.265851 +/- 0.0014 TT =  6:22:49 (JD 2458463.765851)
Epoch 2018 Dec  8.0 TT = JDT 2458460.5   Earth MOID: 0.0213   AutoNEOCP
M 359.13989827 +/- 0.0009           (J2000 ecliptic)
n   0.26336220 +/- 0.000219         Peri.  359.54254 +/- 0.0019
a   2.41046272 +/- 0.00133          Node    80.23878 +/- 0.00041
e   0.5826942 +/- 0.000228          Incl.    7.25520 +/- 0.0020
P   3.74                   H 24.9   G  0.15   U  7.1  
q 1.00590006 +/- 7.5e-6    Q 3.81502538 +/- 0.00266
From 72 observations 2018 Dec. 6-8 (38.9 hr); mean residual 0".56
Residuals in arcseconds: 
181206 T05  .54-  .44-    181206 104  .07-  .02+    181207 658  1.1+  1.1-    
181206 T05  .20+  .16+    181206 160  .15+  .28+    181207 658  1.0+  .33-    
181206 T05  .71+  1.1+    181206 160  .11+  .37+    181207 658  .22+  .58-    
181206 T05  .69-  .61-    181206 160  .04+  .15-    181207 Q62  .46+  .58+    
181206 T05  .25+  .18+    181206 160  .10+  .42+    181207 Q62  .44+  .45+    
181206 T08  .22+  .70+    181206 160  .01-  .28+    181207 Q62  1.1+  .78+    
181206 T08  .36-  .21-    181206 L01  .55-  .34-    181207 474  .53-  .45-    
181206 T08  .07-  .19+    181206 L01  .39-  .25-    181207 474  .45-  .85-    
181206 T08  .07+  .28+    181206 L01  .56-  .06-    181207 474  .69-  .67-    
181206 T08  .07+  .17+    181206 L01  .42-  .39-    181207 474  .76-  .98-    
181206 T05  .04-  .14-    181207 X31  .29-  .27+    181207 474  .53-  .68-    
181206 T05  .23+  .14+    181207 X31  .24-  .24-    181207 E23  .21-  .00     
181206 T05  .12+  .04-    181207 X31  1.0+  .08-    181207 E23  .27+  .04+    
181206 T05  .30-  .10-    181207 H21  .53-  .29-    181207 E23  .19-  .04+    
181206 474  .02-  .05+    181207 H21  .68-  .30-    181207 J69  1.0+  2.2+    
181206 474  .04-  .09-    181207 H21  .52-  .07-    181207 J69  .53+  1.2+    
181206 474  .21+  .05+    181207 H21  .42-  .28-    181207 J69  1.0+  1.1+    
181206 T05  .36+  .26+    181207 H36  .69+  .50+    181207 J69  2.5+  .22-    
181206 474  .06+  .01-    181207 H36  .36-  .08+    181207 J95  .16-  .17+    
181206 474  .09-  .14+    181207 H21  .41-  .41-    181207 J95  .42-  .15-    
181206 474  .05+  .20+    181207 H36  .67+  .35+    181207 J95  .21-  .04-    
181206 474  .29-  .04-    181207 H36  .20+  .21+    181208 X31  .40+  .01+    
